Terug naar catalogus

STARLINK-32255

ActiefCommunicatieVLEO
NORAD 60417·PAYLOAD·🇺🇸 United States

Gelanceerd Aug 10, 2024 vanaf Cape Canaveral Space Force Station

Loading…

Volgende Passages (komende 24 uur)

TLE

VersSource: CelesTrak SupGP

Epoch: Sep 14, 2026, 15:19 UTC

1 60417C 24141V   26257.63868056 -.00039703  00000+0 -11725-2 0  2572
2 60417  53.1586  81.1177 0001370  89.1630 263.0587 15.34424080    14

Volg STARLINK-32255 in realtime met AllMySat

Download on the App Store